"Pseudo-MPEC" for W023248

Created 2026 Sep 5 9:35:15 UT using Find_Orb

Click here for an explanation of pseudo-MPECs

 
 Astrometry: 
     W023248* C2026 08 30.91214103 31 52.871+18 44 07.73   ~9195 20.55rVNEOCPO18
     W023248  C2026 08 30.91430603 31 52.883+18 44 10.21   ~9195 20.75rVNEOCPO18
     W023248  C2026 08 30.91758103 31 52.914+18 44 13.95   ~9195 20.94rVNEOCPO18

Station data:
(O18) WFST, Lenghu  (N38.607601 E93.895220)  China.  Observers K. Yan, Z. Q.
   Li, J. Z. Zhu, N. Jiang, Z. Y. Liu. Measurers B. Li, H. B. Zhao, Z. J. Xu,
   G. T. Zhaori. 2.5-m f/2.48 reflector + CCD.

Orbital elements:  W023248
   Perihelion 2026 Mar 27.638516 +/- 109 TT = 15:19:27.7 (JD 2461127.138516)
Epoch 2026 Aug 31.0 TT = JDT 2461283.5   Earth MOID: 0.3176   Ve: 0.0803
M 137.886822669 +/- 120             Ma: 0.0515                   AutoNEOCP
n   0.881846468 +/- 0.755           Peri.  198.713744 +/- 70
a   1.076979398 +/- 0.615           Node    13.693591 +/- 16
e   0.42851906 +/- 0.238            Incl.   25.257541 +/- 55
P   1.118/408.227d         H 18.66  G  0.15   U 12.6  SR
q 0.615473189 +/- 0.728    Q 1.538485607 +/- 25.1         (J2000 ecliptic)
From 3 observations 2026 Aug. 30 (7.8 min); mean residual 0".02
Residuals in arcseconds: 
260830 O18  .03+  .00     260830 O18  .05-  .00     260830 O18  .02+  .00     

Ephemerides (geocentric):
Date (UTC) HH   RA             Dec           delta  r     elong  mag " sig PA
---- --------  ------------   ------------  ------ ------ -----  --- --------
2026 09 05 10  03 32 10.369   +20 31 26.51  .84439 1.4903 106.8 20.7  44d  82
2026 09 05 11  03 32 10.134   +20 32 16.49  .84405 1.4904 106.8 20.7  44d  82
2026 09 05 12  03 32 09.894   +20 33 06.50  .84371 1.4905 106.8 20.7  44d  82
2026 09 05 13  03 32 09.648   +20 33 56.52  .84338 1.4906 106.9 20.7  44d  82
2026 09 05 14  03 32 09.396   +20 34 46.56  .84304 1.4907 106.9 20.7  44d  82
2026 09 05 15  03 32 09.138   +20 35 36.63  .84270 1.4908 107.0 20.7  44d  82
2026 09 05 16  03 32 08.874   +20 36 26.71  .84236 1.4909 107.0 20.7  44d  82
2026 09 05 17  03 32 08.604   +20 37 16.82  .84202 1.4910 107.0 20.7  44d  82
2026 09 05 18  03 32 08.328   +20 38 06.94  .84168 1.4911 107.1 20.7  44d  82
2026 09 05 19  03 32 08.046   +20 38 57.08  .84135 1.4911 107.1 20.7  44d  81
2026 09 05 20  03 32 07.759   +20 39 47.25  .84101 1.4912 107.2 20.7  44d  81
2026 09 05 21  03 32 07.465   +20 40 37.43  .84067 1.4913 107.2 20.7  44d  81
2026 09 05 22  03 32 07.165   +20 41 27.63  .84033 1.4914 107.2 20.7  44d  81
2026 09 05 23  03 32 06.860   +20 42 17.86  .83999 1.4915 107.3 20.7  44d  81
2026 09 06 00  03 32 06.548   +20 43 08.10  .83966 1.4916 107.3 20.7  44d  81
2026 09 06 01  03 32 06.231   +20 43 58.36  .83932 1.4917 107.3 20.7  44d  81
2026 09 06 02  03 32 05.907   +20 44 48.65  .83898 1.4918 107.4 20.7  45d  81
2026 09 06 03  03 32 05.577   +20 45 38.95  .83864 1.4919 107.4 20.7  45d  81
2026 09 06 04  03 32 05.242   +20 46 29.27  .83830 1.4920 107.5 20.7  45d  82
2026 09 06 05  03 32 04.900   +20 47 19.62  .83797 1.4921 107.5 20.7  45d  82
2026 09 06 06  03 32 04.552   +20 48 09.98  .83763 1.4922 107.5 20.7  45d  82
2026 09 06 07  03 32 04.198   +20 49 00.37  .83729 1.4923 107.6 20.7  45d  83
2026 09 06 08  03 32 03.838   +20 49 50.77  .83695 1.4924 107.6 20.7  46d  84
2026 09 06 09  03 32 03.472   +20 50 41.19  .83662 1.4925 107.6 20.7  47d  84
2026 09 06 10  03 32 03.100   +20 51 31.64  .83628 1.4926 107.7 20.7  47d  84
2026 09 06 11  03 32 02.722   +20 52 22.10  .83594 1.4926 107.7 20.7  47d  83
2026 09 06 12  03 32 02.338   +20 53 12.58  .83560 1.4927 107.8 20.7  47d  83
2026 09 06 13  03 32 01.948   +20 54 03.09  .83526 1.4928 107.8 20.7  48d  83
2026 09 06 14  03 32 01.551   +20 54 53.61  .83493 1.4929 107.8 20.7  48d  83
2026 09 06 15  03 32 01.149   +20 55 44.16  .83459 1.4930 107.9 20.7  48d  82
2026 09 06 16  03 32 00.740   +20 56 34.72  .83425 1.4931 107.9 20.7  48d  82
2026 09 06 17  03 32 00.325   +20 57 25.31  .83391 1.4932 108.0 20.7  48d  82
2026 09 06 18  03 31 59.904   +20 58 15.91  .83358 1.4933 108.0 20.7  48d  82
2026 09 06 19  03 31 59.477   +20 59 06.53  .83324 1.4934 108.0 20.7  48d  82
2026 09 06 20  03 31 59.043   +20 59 57.18  .83290 1.4935 108.1 20.7  48d  82
2026 09 06 21  03 31 58.604   +21 00 47.85  .83256 1.4936 108.1 20.7  48d  81
2026 09 06 22  03 31 58.158   +21 01 38.53  .83223 1.4937 108.1 20.7  49d  81
2026 09 06 23  03 31 57.706   +21 02 29.24  .83189 1.4938 108.2 20.7  49d  81
2026 09 07 00  03 31 57.248   +21 03 19.96  .83155 1.4938 108.2 20.7  49d  81
2026 09 07 01  03 31 56.784   +21 04 10.71  .83121 1.4939 108.3 20.7  49d  81
2026 09 07 02  03 31 56.313   +21 05 01.48  .83088 1.4940 108.3 20.7  49d  81
2026 09 07 03  03 31 55.836   +21 05 52.26  .83054 1.4941 108.3 20.7  49d  81
2026 09 07 04  03 31 55.353   +21 06 43.07  .83020 1.4942 108.4 20.7  49d  81
2026 09 07 05  03 31 54.864   +21 07 33.90  .82987 1.4943 108.4 20.7  49d  81
2026 09 07 06  03 31 54.369   +21 08 24.74  .82953 1.4944 108.5 20.7  49d  81
2026 09 07 07  03 31 53.867   +21 09 15.61  .82919 1.4945 108.5 20.7  49d  81
2026 09 07 08  03 31 53.359   +21 10 06.50  .82885 1.4946 108.5 20.7  49d  81
2026 09 07 09  03 31 52.844   +21 10 57.41  .82852 1.4947 108.6 20.7  49d  81